Regional Weather Roundup
Issued by NWS

Home | Current Version | Previous Version | Text Only | Print | Product List | Glossary Off
Versions: 1 2 3 4 5 6 7 8 9 10 11 12 13 14 15 16 17 18 19 20 21 22 23 24 25 26 27 28 29 30 31 32 33 34 35 36 37 38 39 40 41 42 43 44 45 46 47 48 49 50

000
ASUS43 KFSD 220810
RWRSD

WEATHER ROUNDUP FOR SOUTH DAKOTA
NATIONAL WEATHER SERVICE SIOUX FALLS SD
300 AM CDT TUE JUL 22 2014

NOTE: "FAIR" INDICATES FEW OR NO CLOUDS BELOW 12,000 FEET WITH NO
SIGNIFICANT WEATHER AND/OR OBSTRUCTIONS TO VISIBILITY.


SDZ001>005-009-010-012>017-220900-
NORTHWEST AND NORTH CENTRAL SOUTH DAKOTA

CITY           SKY/WX    TMP DP  RH WIND       PRES   REMARKS
BUFFALO          N/A     62  60  93 NE8       30.04S
FAITH            N/A     65  62  90 W12G21    30.06R
MOBRIDGE       PTCLDY    65  63  93 NW17      30.02R
$$

SDZ012>016-024>037-041>051-057-063-072>074-220900-
SOUTHWEST AND SOUTH CENTRAL SOUTH DAKOTA

CITY           SKY/WX    TMP DP  RH WIND       PRES   REMARKS
RAPID CTY ARPT PTCLDY    65  62  90 NW3       30.11R
PIERRE         LGT RAIN  68  64  87 S9        30.05R
CUSTER         CLEAR     63  56  78 N3        30.24F
ELLSWORTH AFB  PTCLDY    66  63  88 S1        30.10F
PHILIP         PTCLDY    66  63  90 NE6       30.04F
PINE RIDGE     CLEAR     70  63  78 E9        30.12R
WINNER         FAIR      74  63  68 NW20G25   30.07R
$$

SDZ004>011-016>023-039-040-220900-
NORTHEAST SOUTH DAKOTA

CITY           SKY/WX    TMP DP  RH WIND       PRES   REMARKS
ABERDEEN       PTCLDY    64  62  93 NW13      29.95R
WATERTOWN      CLEAR     66  62  87 N8        29.90S
SISSETON         N/A     67  65  93 N13       29.89R
$$

SDZ017-020-022-023-036>040-048>070-220900-
SOUTHEAST SOUTH DAKOTA

CITY           SKY/WX    TMP DP  RH WIND       PRES   REMARKS
SIOUX FALLS    CLEAR     78  74  87 N12       29.86R
HURON          PTCLDY    68  62  81 NW12      29.93R
CHAMBERLAIN    PTCLDY    72  60  66 NW23G29   30.08R
MITCHELL       CLEAR     71  63  75 N14G22    29.91R
YANKTON        PTCLDY    75  72  88 NW7       29.85S
$$

ABBREVIATIONS USED IN REMARKS
   TC - TEMPERATURE IN CELSIUS
  WCI - WIND CHILL INDEX
   HX - HEAT INDEX
  VSB - VISIBILITY



USA.gov is the U.S. government's official web portal to all federal, state and local government web resources and services.